Time,TemperatureF,DewpointF,PressureIn,WindDirection,WindDirectionDegrees,WindSpeedMPH,WindSpeedGustMPH,Humidity,HourlyPrecipIn,Conditions,Clouds,dailyrainin,SoftwareType,DateUTC
2013-07-18 00:01:00,75.4,70.6,30.09,ESE,112,1.8,1.8,85,0.00,RA,,0.00,WeatherDisplay:10.37,2013-07-18 04:01:00,
2013-07-18 00:06:00,75.2,70.4,30.09,ESE,112,3.5,3.5,85,0.00,RA,,0.00,WeatherDisplay:10.37,2013-07-18 04:06:00,
2013-07-18 00:11:00,75.2,70.4,30.09,ESE,112,2.3,2.3,85,0.00,BKN,,0.00,WeatherDisplay:10.37,2013-07-18 04:11:00,
2013-07-18 00:16:00,75.2,70.4,30.09,East,90,2.3,2.3,85,0.00,BKN,,0.00,WeatherDisplay:10.37,2013-07-18 04:16:00,
2013-07-18 00:21:00,75.2,70.4,30.09,ESE,112,1.4,1.4,85,0.00,BKN,,0.00,WeatherDisplay:10.37,2013-07-18 04:21:00,
2013-07-18 00:26:00,75.0,70.2,30.09,SE,135,2.3,2.3,85,0.00,BKN,,0.00,WeatherDisplay:10.37,2013-07-18 04:26:00,
2013-07-18 00:31:00,74.8,70.0,30.09,East,90,2.6,2.6,85,0.00,BKN,,0.00,WeatherDisplay:10.37,2013-07-18 04:31:00,
2013-07-18 00:36:00,74.8,70.0,30.09,ESE,112,0.0,0.0,85,0.00,BKN,,0.00,WeatherDisplay:10.37,2013-07-18 04:36:00,
2013-07-18 00:41:00,74.7,69.8,30.10,NE,45,2.3,2.3,85,0.00,BKN,,0.00,WeatherDisplay:10.37,2013-07-18 04:41:00,
2013-07-18 00:46:00,74.7,69.8,30.09,NE,45,1.1,1.1,85,0.00,BKN,,0.00,WeatherDisplay:10.37,2013-07-18 04:46:00,
2013-07-18 00:51:00,74.5,70.0,30.09,NE,45,1.1,1.1,86,0.00,BKN,,0.00,WeatherDisplay:10.37,2013-07-18 04:51:00,
2013-07-18 00:56:00,74.3,69.8,30.09,NE,45,1.1,1.1,86,0.00,BKN,,0.00,WeatherDisplay:10.37,2013-07-18 04:56:00,
2013-07-18 01:01:00,74.1,69.7,30.09,NE,45,1.1,0.0,86,0.00,BKN,,0.00,WeatherDisplay:10.37,2013-07-18 05:01:00,
2013-07-18 01:06:00,73.9,69.8,30.08,NE,45,1.1,1.1,87,0.00,BKN,,0.00,WeatherDisplay:10.37,2013-07-18 05:06:00,
2013-07-18 01:11:00,73.8,69.6,30.08,NE,45,0.5,0.5,87,0.00,BKN,,0.00,WeatherDisplay:10.37,2013-07-18 05:11:00,
2013-07-18 01:16:00,73.6,69.5,30.08,ENE,68,1.1,1.1,87,0.00,BKN,,0.00,WeatherDisplay:10.37,2013-07-18 05:16:00,
2013-07-18 01:21:00,73.6,69.8,30.08,East,90,1.1,1.1,88,0.00,BKN,,0.00,WeatherDisplay:10.37,2013-07-18 05:21:00,
2013-07-18 01:26:00,73.4,69.6,30.08,East,90,1.1,1.1,88,0.00,BKN,,0.00,WeatherDisplay:10.37,2013-07-18 05:26:00,
2013-07-18 01:31:00,73.4,69.6,30.08,East,90,1.1,1.1,88,0.00,BKN,,0.00,WeatherDisplay:10.37,2013-07-18 05:31:00,
2013-07-18 01:36:00,73.4,70.0,30.08,ENE,68,1.4,1.4,89,0.00,BKN,,0.00,WeatherDisplay:10.37,2013-07-18 05:36:00,
2013-07-18 01:41:00,73.2,69.5,30.08,ENE,68,0.0,0.0,88,0.00,BKN,,0.00,WeatherDisplay:10.37,2013-07-18 05:41:00,
2013-07-18 01:46:00,73.0,69.3,30.08,ENE,68,1.1,1.1,88,0.00,BKN,,0.00,WeatherDisplay:10.37,2013-07-18 05:46:00,
2013-07-18 01:51:00,73.0,69.6,30.08,ENE,68,1.1,1.1,89,0.00,BKN,,0.00,WeatherDisplay:10.37,2013-07-18 05:51:00,
2013-07-18 01:56:00,73.2,69.8,30.08,ENE,68,1.1,1.1,89,0.00,BKN,,0.00,WeatherDisplay:10.37,2013-07-18 05:56:00,
2013-07-18 02:01:00,73.2,69.8,30.08,ENE,68,1.1,1.1,89,0.00,SCT,,0.00,WeatherDisplay:10.37,2013-07-18 06:01:00,
2013-07-18 02:06:00,73.4,70.0,30.08,NE,45,2.3,2.3,89,0.00,SCT,,0.00,WeatherDisplay:10.37,2013-07-18 06:06:00,
2013-07-18 02:11:00,73.6,70.1,30.08,NE,45,2.3,2.3,89,0.00,SCT,,0.00,WeatherDisplay:10.37,2013-07-18 06:11:00,
2013-07-18 02:17:00,73.6,70.1,30.08,NE,45,1.4,1.4,89,0.00,SCT,,0.00,WeatherDisplay:10.37,2013-07-18 06:17:00,
2013-07-18 02:22:00,73.4,70.0,30.07,NE,45,1.1,1.1,89,0.00,SCT,,0.00,WeatherDisplay:10.37,2013-07-18 06:22:00,
2013-07-18 02:27:00,73.2,69.8,30.07,NE,45,0.5,0.5,89,0.00,SCT,,0.00,WeatherDisplay:10.37,2013-07-18 06:27:00,
2013-07-18 02:32:00,73.0,69.6,30.07,NE,45,0.0,0.0,89,0.00,SCT,,0.00,WeatherDisplay:10.37,2013-07-18 06:32:00,
2013-07-18 02:37:00,73.0,69.3,30.07,NE,45,0.0,0.0,88,0.00,SCT,,0.00,WeatherDisplay:10.37,2013-07-18 06:37:00,
2013-07-18 02:42:00,72.9,69.1,30.07,NE,45,0.0,0.0,88,0.00,SCT,,0.00,WeatherDisplay:10.37,2013-07-18 06:42:00,
2013-07-18 02:47:00,72.9,69.1,30.07,NE,45,0.0,0.0,88,0.00,SCT,,0.00,WeatherDisplay:10.37,2013-07-18 06:47:00,
2013-07-18 02:52:00,72.7,68.9,30.07,NE,45,0.0,0.0,88,0.00,SCT,,0.00,WeatherDisplay:10.37,2013-07-18 06:52:00,
2013-07-18 02:57:00,72.7,68.9,30.07,NE,45,0.0,0.0,88,0.00,SCT,,0.00,WeatherDisplay:10.37,2013-07-18 06:57:00,
2013-07-18 03:02:00,72.7,68.9,30.07,NE,45,0.0,0.0,88,0.00,BKN,,0.00,WeatherDisplay:10.37,2013-07-18 07:02:00,
2013-07-18 03:07:00,72.7,68.9,30.07,NE,45,0.0,0.0,88,0.00,BKN,,0.00,WeatherDisplay:10.37,2013-07-18 07:07:00,
2013-07-18 03:12:00,72.7,68.9,30.07,NE,45,0.0,0.0,88,0.00,BKN,,0.00,WeatherDisplay:10.37,2013-07-18 07:12:00,
2013-07-18 03:17:00,72.7,68.9,30.07,NE,45,0.0,0.0,88,0.00,BKN,,0.00,WeatherDisplay:10.37,2013-07-18 07:17:00,
2013-07-18 03:22:00,72.9,69.4,30.07,NE,45,0.5,0.5,89,0.00,BKN,,0.00,WeatherDisplay:10.37,2013-07-18 07:22:00,
2013-07-18 03:27:00,73.2,70.1,30.07,NE,45,1.1,0.0,90,0.00,BKN,,0.00,WeatherDisplay:10.37,2013-07-18 07:27:00,
2013-07-18 03:32:00,73.4,70.3,30.07,NE,45,1.1,1.1,90,0.00,BKN,,0.00,WeatherDisplay:10.37,2013-07-18 07:32:00,
2013-07-18 03:37:00,73.4,70.3,30.07,NE,45,1.1,1.1,90,0.00,BKN,,0.00,WeatherDisplay:10.37,2013-07-18 07:37:00,
2013-07-18 03:42:00,73.4,70.3,30.06,NE,45,1.1,1.1,90,0.00,BKN,,0.00,WeatherDisplay:10.37,2013-07-18 07:42:00,
2013-07-18 03:47:00,73.4,70.3,30.06,NE,45,1.1,1.1,90,0.00,BKN,,0.00,WeatherDisplay:10.37,2013-07-18 07:47:00,
2013-07-18 03:52:00,73.6,70.5,30.07,NNE,22,2.3,2.3,90,0.00,BKN,,0.00,WeatherDisplay:10.37,2013-07-18 07:52:00,
2013-07-18 03:57:00,73.8,70.6,30.07,North,0,2.3,2.3,90,0.00,BKN,,0.00,WeatherDisplay:10.37,2013-07-18 07:57:00,
2013-07-18 04:02:00,73.8,70.6,30.07,NNE,22,2.3,2.3,90,0.00,BKN,,0.00,WeatherDisplay:10.37,2013-07-18 08:02:00,
2013-07-18 04:07:00,73.9,70.8,30.07,NNE,22,2.4,2.4,90,0.00,BKN,,0.00,WeatherDisplay:10.37,2013-07-18 08:07:00,
2013-07-18 04:12:00,73.9,70.5,30.06,NNE,22,1.1,0.0,89,0.00,BKN,,0.00,WeatherDisplay:10.37,2013-07-18 08:12:00,
2013-07-18 04:17:00,74.1,70.7,30.06,NE,45,3.5,3.5,89,0.00,BKN,,0.00,WeatherDisplay:10.37,2013-07-18 08:17:00,
2013-07-18 04:22:00,74.1,70.7,30.06,NNE,22,2.9,2.9,89,0.00,BKN,,0.00,WeatherDisplay:10.37,2013-07-18 08:22:00,
2013-07-18 04:27:00,74.1,70.7,30.06,NE,45,1.1,1.1,89,0.00,BKN,,0.00,WeatherDisplay:10.37,2013-07-18 08:27:00,
2013-07-18 04:32:00,74.3,70.8,30.06,North,0,1.1,1.1,89,0.00,BKN,,0.00,WeatherDisplay:10.37,2013-07-18 08:32:00,
2013-07-18 04:37:00,74.3,70.8,30.06,North,0,0.0,0.5,89,0.00,BKN,,0.00,WeatherDisplay:10.37,2013-07-18 08:37:00,
2013-07-18 04:42:00,74.1,70.7,30.06,NE,45,1.1,1.1,89,0.00,BKN,,0.00,WeatherDisplay:10.37,2013-07-18 08:42:00,
2013-07-18 04:47:00,74.1,70.7,30.06,NE,45,1.1,1.1,89,0.00,BKN,,0.00,WeatherDisplay:10.37,2013-07-18 08:47:00,
2013-07-18 04:52:00,74.3,71.2,30.06,NE,45,2.3,2.3,90,0.00,BKN,,0.00,WeatherDisplay:10.37,2013-07-18 08:52:00,
2013-07-18 04:57:00,74.3,71.2,30.05,North,0,1.1,0.0,90,0.00,BKN,,0.00,WeatherDisplay:10.37,2013-07-18 08:57:00,
2013-07-18 05:02:00,74.3,71.2,30.05,NNE,22,2.6,2.6,90,0.00,BKN,,0.00,WeatherDisplay:10.37,2013-07-18 09:02:00,
2013-07-18 05:07:00,74.3,71.2,30.06,North,0,3.5,3.5,90,0.00,BKN,,0.00,WeatherDisplay:10.37,2013-07-18 09:07:00,
2013-07-18 05:12:00,74.3,71.2,30.06,NNE,22,2.4,2.4,90,0.00,BKN,,0.00,WeatherDisplay:10.37,2013-07-18 09:12:00,
2013-07-18 05:17:00,74.5,71.4,30.06,North,0,2.3,2.3,90,0.00,BKN,,0.00,WeatherDisplay:10.37,2013-07-18 09:17:00,
2013-07-18 05:22:00,74.5,71.4,30.06,NE,45,2.3,2.3,90,0.00,BKN,,0.00,WeatherDisplay:10.37,2013-07-18 09:22:00,
2013-07-18 05:27:00,74.5,71.4,30.06,NNE,22,2.4,2.4,90,0.00,BKN,,0.00,WeatherDisplay:10.37,2013-07-18 09:27:00,
2013-07-18 05:32:00,74.5,71.4,30.06,NE,45,2.3,2.3,90,0.00,BKN,,0.00,WeatherDisplay:10.37,2013-07-18 09:32:00,
2013-07-18 05:37:00,74.5,71.0,30.06,NE,45,2.3,2.3,89,0.00,BKN,,0.00,WeatherDisplay:10.37,2013-07-18 09:37:00,
2013-07-18 05:42:00,74.5,71.4,30.07,NE,45,2.3,2.3,90,0.00,BKN,,0.00,WeatherDisplay:10.37,2013-07-18 09:42:00,
2013-07-18 05:47:00,74.5,71.4,30.07,NE,45,1.1,0.0,90,0.00,BKN,,0.00,WeatherDisplay:10.37,2013-07-18 09:47:00,
2013-07-18 05:52:00,74.3,71.2,30.07,NE,45,2.3,2.3,90,0.00,BKN,,0.00,WeatherDisplay:10.37,2013-07-18 09:52:00,
2013-07-18 05:57:00,74.3,71.2,30.07,NNE,22,2.3,2.3,90,0.00,BKN,,0.00,WeatherDisplay:10.37,2013-07-18 09:57:00,
2013-07-18 06:02:00,74.3,71.2,30.07,NE,45,1.1,1.1,90,0.00,BKN,,0.00,WeatherDisplay:10.37,2013-07-18 10:02:00,
2013-07-18 06:08:00,74.5,71.4,30.08,North,0,4.6,4.6,90,0.00,BKN,,0.00,WeatherDisplay:10.37,2013-07-18 10:08:00,
2013-07-18 06:13:00,74.5,71.4,30.08,North,0,1.1,1.1,90,0.00,BKN,,0.00,WeatherDisplay:10.37,2013-07-18 10:13:00,
2013-07-18 06:18:00,74.5,71.4,30.08,NNE,22,2.3,2.3,90,0.00,BKN,,0.00,WeatherDisplay:10.37,2013-07-18 10:18:00,
2013-07-18 06:23:00,74.5,71.4,30.08,East,90,2.3,2.3,90,0.00,BKN,,0.00,WeatherDisplay:10.37,2013-07-18 10:23:00,
2013-07-18 06:28:00,74.5,71.4,30.08,NE,45,1.1,1.1,90,0.00,BKN,,0.00,WeatherDisplay:10.37,2013-07-18 10:28:00,
2013-07-18 06:33:00,74.5,71.4,30.08,NNE,22,3.5,3.5,90,0.00,BKN,,0.00,WeatherDisplay:10.37,2013-07-18 10:33:00,
2013-07-18 06:38:00,74.5,71.4,30.08,NNE,22,3.5,3.5,90,0.00,BKN,,0.00,WeatherDisplay:10.37,2013-07-18 10:38:00,
2013-07-18 06:43:00,74.5,71.4,30.08,NNE,22,4.6,4.6,90,0.00,BKN,,0.00,WeatherDisplay:10.37,2013-07-18 10:43:00,
2013-07-18 06:48:00,74.5,71.4,30.08,NNE,22,3.3,3.3,90,0.00,BKN,,0.00,WeatherDisplay:10.37,2013-07-18 10:48:00,
2013-07-18 06:53:00,74.8,71.7,30.08,NNE,22,2.3,2.6,90,0.00,BKN,,0.00,WeatherDisplay:10.37,2013-07-18 10:53:00,
2013-07-18 06:58:00,74.8,71.7,30.08,NE,45,2.3,2.3,90,0.00,BKN,,0.00,WeatherDisplay:10.37,2013-07-18 10:58:00,
2013-07-18 07:03:00,75.0,71.9,30.08,NE,45,4.6,4.6,90,0.00,BKN,,0.00,WeatherDisplay:10.37,2013-07-18 11:03:00,
2013-07-18 07:08:00,75.2,72.1,30.08,NNW,338,3.5,3.5,90,0.00,BKN,,0.00,WeatherDisplay:10.37,2013-07-18 11:08:00,
2013-07-18 07:13:00,75.4,72.2,30.08,NNE,22,4.6,4.6,90,0.00,BKN,,0.00,WeatherDisplay:10.37,2013-07-18 11:13:00,
2013-07-18 07:18:00,75.6,72.4,30.08,ENE,68,3.5,3.5,90,0.00,BKN,,0.00,WeatherDisplay:10.37,2013-07-18 11:18:00,
2013-07-18 07:23:00,75.7,72.3,30.08,NE,45,2.6,2.6,89,0.00,BKN,,0.00,WeatherDisplay:10.37,2013-07-18 11:23:00,
2013-07-18 07:28:00,75.9,72.4,30.08,ENE,68,4.6,4.6,89,0.00,BKN,,0.00,WeatherDisplay:10.37,2013-07-18 11:28:00,
2013-07-18 07:33:00,76.3,72.8,30.08,North,0,3.3,3.3,89,0.00,BKN,,0.00,WeatherDisplay:10.37,2013-07-18 11:33:00,
2013-07-18 07:38:00,77.0,72.8,30.08,NE,45,4.6,4.6,87,0.00,BKN,,0.00,WeatherDisplay:10.37,2013-07-18 11:38:00,
2013-07-18 07:43:00,77.5,73.4,30.08,NE,45,3.5,3.5,87,0.00,BKN,,0.00,WeatherDisplay:10.37,2013-07-18 11:43:00,
2013-07-18 07:49:00,78.3,73.4,30.08,North,0,2.3,2.3,85,0.00,BKN,,0.00,WeatherDisplay:10.37,2013-07-18 11:49:00,
2013-07-18 07:54:00,78.8,73.9,30.08,NE,45,4.6,4.6,85,0.00,BKN,,0.00,WeatherDisplay:10.37,2013-07-18 11:54:00,
2013-07-18 07:59:00,79.0,74.1,30.09,NE,45,2.3,2.3,85,0.00,BKN,,0.00,WeatherDisplay:10.37,2013-07-18 11:59:00,
2013-07-18 08:04:00,78.8,73.6,30.09,ENE,68,2.3,2.3,84,0.00,BKN,,0.00,WeatherDisplay:10.37,2013-07-18 12:04:00,
2013-07-18 08:09:00,78.6,73.7,30.09,NE,45,3.5,3.5,85,0.00,BKN,,0.00,WeatherDisplay:10.37,2013-07-18 12:09:00,
2013-07-18 08:14:00,79.0,74.1,30.10,NE,45,2.3,2.3,85,0.00,BKN,,0.00,WeatherDisplay:10.37,2013-07-18 12:14:00,
2013-07-18 08:19:00,79.3,73.7,30.09,NE,45,4.6,4.6,83,0.00,BKN,,0.00,WeatherDisplay:10.37,2013-07-18 12:19:00,
2013-07-18 08:24:00,79.9,74.3,30.09,ESE,112,5.8,5.8,83,0.00,BKN,,0.00,WeatherDisplay:10.37,2013-07-18 12:24:00,
2013-07-18 08:29:00,80.8,74.8,30.10,East,90,2.3,2.3,82,0.00,BKN,,0.00,WeatherDisplay:10.37,2013-07-18 12:29:00,
2013-07-18 08:34:00,81.7,74.9,30.10,NE,45,5.8,5.8,80,0.00,BKN,,0.00,WeatherDisplay:10.37,2013-07-18 12:34:00,
2013-07-18 08:39:00,81.3,74.2,30.10,NE,45,5.8,5.8,79,0.00,BKN,,0.00,WeatherDisplay:10.37,2013-07-18 12:39:00,
2013-07-18 08:44:00,81.0,74.6,30.10,ENE,68,4.6,4.6,81,0.00,BKN,,0.00,WeatherDisplay:10.37,2013-07-18 12:44:00,
2013-07-18 08:49:00,80.8,74.4,30.10,NE,45,5.8,5.8,81,0.00,BKN,,0.00,WeatherDisplay:10.37,2013-07-18 12:49:00,
2013-07-18 08:54:00,81.0,74.6,30.10,NE,45,2.3,3.1,81,0.00,BKN,,0.00,WeatherDisplay:10.37,2013-07-18 12:54:00,
2013-07-18 08:59:00,80.8,74.4,30.10,East,90,3.5,3.5,81,0.00,BKN,,0.00,WeatherDisplay:10.37,2013-07-18 12:59:00,
2013-07-18 09:04:00,80.8,74.4,30.10,East,90,2.3,2.3,81,0.00,BKN,,0.00,WeatherDisplay:10.37,2013-07-18 13:04:00,
2013-07-18 09:09:00,80.4,74.1,30.10,NE,45,5.8,5.8,81,0.00,BKN,,0.00,WeatherDisplay:10.37,2013-07-18 13:09:00,
2013-07-18 09:14:00,80.1,73.7,30.10,ESE,112,2.3,2.3,81,0.00,BKN,,0.00,WeatherDisplay:10.37,2013-07-18 13:14:00,
2013-07-18 09:19:00,80.4,74.1,30.10,SE,135,2.3,3.1,81,0.00,BKN,,0.00,WeatherDisplay:10.37,2013-07-18 13:19:00,
2013-07-18 09:24:00,80.6,74.2,30.10,NE,45,2.3,2.3,81,0.00,BKN,,0.00,WeatherDisplay:10.37,2013-07-18 13:24:00,
2013-07-18 09:29:00,80.4,73.7,30.10,ENE,68,3.5,3.5,80,0.00,BKN,,0.00,WeatherDisplay:10.37,2013-07-18 13:29:00,
2013-07-18 09:34:00,80.8,74.0,30.10,SE,135,3.5,3.5,80,0.00,BKN,,0.00,WeatherDisplay:10.37,2013-07-18 13:34:00,
2013-07-18 09:39:00,81.0,73.8,30.10,East,90,2.6,2.6,79,0.00,BKN,,0.00,WeatherDisplay:10.37,2013-07-18 13:39:00,
2013-07-18 09:44:00,81.3,74.2,30.10,East,90,2.3,2.3,79,0.00,BKN,,0.00,WeatherDisplay:10.37,2013-07-18 13:44:00,
2013-07-18 09:49:00,81.5,74.4,30.10,East,90,2.4,2.4,79,0.00,BKN,,0.00,WeatherDisplay:10.37,2013-07-18 13:49:00,
2013-07-18 09:54:00,81.7,74.5,30.10,ESE,112,4.3,4.3,79,0.00,BKN,,0.00,WeatherDisplay:10.37,2013-07-18 13:54:00,
2013-07-18 09:59:00,81.7,74.5,30.10,ESE,112,2.3,2.3,79,0.00,BKN,,0.00,WeatherDisplay:10.37,2013-07-18 13:59:00,
2013-07-18 10:04:00,82.0,74.5,30.10,SE,135,4.6,4.6,78,0.00,BKN,,0.00,WeatherDisplay:10.37,2013-07-18 14:04:00,
2013-07-18 10:09:00,82.4,74.5,30.10,East,90,2.3,5.2,77,0.00,BKN,,0.00,WeatherDisplay:10.37,2013-07-18 14:09:00,
2013-07-18 10:14:00,82.4,74.1,30.10,SSE,158,4.6,4.6,76,0.00,BKN,,0.00,WeatherDisplay:10.37,2013-07-18 14:14:00,
2013-07-18 10:19:00,82.4,74.1,30.10,East,90,4.6,4.6,76,0.00,BKN,,0.00,WeatherDisplay:10.37,2013-07-18 14:19:00,
2013-07-18 10:24:00,82.0,73.7,30.09,East,90,5.2,5.2,76,0.00,BKN,,0.00,WeatherDisplay:10.37,2013-07-18 14:24:00,
2013-07-18 10:29:00,82.0,73.7,30.09,East,90,6.0,6.0,76,0.00,BKN,,0.00,WeatherDisplay:10.37,2013-07-18 14:29:00,
2013-07-18 10:34:00,81.9,73.5,30.10,ESE,112,4.6,4.6,76,0.00,BKN,,0.00,WeatherDisplay:10.37,2013-07-18 14:34:00,
2013-07-18 10:39:00,82.4,74.1,30.10,ENE,68,4.6,4.6,76,0.00,BKN,,0.00,WeatherDisplay:10.37,2013-07-18 14:39:00,
2013-07-18 10:44:00,82.6,74.2,30.10,ESE,112,4.6,4.6,76,0.00,BKN,,0.00,WeatherDisplay:10.37,2013-07-18 14:44:00,
2013-07-18 10:49:00,82.6,73.8,30.10,ESE,112,6.9,6.9,75,0.00,BKN,,0.00,WeatherDisplay:10.37,2013-07-18 14:49:00,
2013-07-18 10:54:00,82.0,73.7,30.10,ESE,112,5.8,5.8,76,0.00,BKN,,0.00,WeatherDisplay:10.37,2013-07-18 14:54:00,
2013-07-18 10:59:00,81.5,73.6,30.10,ENE,68,5.8,5.8,77,0.00,BKN,,0.00,WeatherDisplay:10.37,2013-07-18 14:59:00,
2013-07-18 11:04:00,81.0,73.8,30.10,ENE,68,3.5,3.5,79,0.01,RA,,0.01,WeatherDisplay:10.37,2013-07-18 15:04:00,
2013-07-18 11:09:00,81.1,74.4,30.10,SE,135,4.6,4.6,80,0.01,RA,,0.01,WeatherDisplay:10.37,2013-07-18 15:09:00,
2013-07-18 11:14:00,81.7,74.9,30.10,ESE,112,3.5,3.5,80,0.01,OVC,,0.01,WeatherDisplay:10.37,2013-07-18 15:14:00,
2013-07-18 11:19:00,82.0,74.1,30.10,ESE,112,5.8,5.8,77,0.01,OVC,,0.01,WeatherDisplay:10.37,2013-07-18 15:19:00,
2013-07-18 11:24:00,82.9,75.0,30.10,ENE,68,4.6,4.6,77,0.01,OVC,,0.01,WeatherDisplay:10.37,2013-07-18 15:24:00,
2013-07-18 11:29:00,83.8,75.5,30.10,SE,135,4.6,4.6,76,0.01,OVC,,0.01,WeatherDisplay:10.37,2013-07-18 15:29:00,
2013-07-18 11:34:00,83.8,74.7,30.10,ESE,112,5.8,5.8,74,0.01,OVC,,0.01,WeatherDisplay:10.37,2013-07-18 15:34:00,
2013-07-18 11:39:00,83.8,74.7,30.10,ENE,68,4.6,4.6,74,0.01,OVC,,0.01,WeatherDisplay:10.37,2013-07-18 15:39:00,
2013-07-18 11:44:00,83.8,74.3,30.10,South,180,8.1,8.1,73,0.01,OVC,,0.01,WeatherDisplay:10.37,2013-07-18 15:44:00,
2013-07-18 11:49:00,84.0,73.6,30.09,SE,135,4.6,4.6,71,0.01,OVC,,0.01,WeatherDisplay:10.37,2013-07-18 15:49:00,
2013-07-18 11:55:00,84.2,73.3,30.09,SSE,158,8.1,8.1,70,0.01,OVC,,0.01,WeatherDisplay:10.37,2013-07-18 15:55:00,
2013-07-18 12:00:00,85.3,72.6,30.10,ESE,112,8.1,8.1,66,0.01,OVC,,0.01,WeatherDisplay:10.37,2013-07-18 16:00:00,
2013-07-18 12:05:00,85.3,71.7,30.10,SE,135,10.4,10.4,64,0.00,BKN,,0.01,WeatherDisplay:10.37,2013-07-18 16:05:00,
2013-07-18 12:10:00,85.6,72.5,30.09,East,90,6.9,6.9,65,0.00,BKN,,0.01,WeatherDisplay:10.37,2013-07-18 16:10:00,
2013-07-18 12:15:00,85.5,72.8,30.09,SE,135,5.8,5.8,66,0.00,BKN,,0.01,WeatherDisplay:10.37,2013-07-18 16:15:00,
2013-07-18 12:20:00,85.8,73.1,30.09,SSE,158,4.6,4.6,66,0.00,BKN,,0.01,WeatherDisplay:10.37,2013-07-18 16:20:00,
2013-07-18 12:25:00,86.7,73.5,30.10,East,90,5.8,5.8,65,0.00,BKN,,0.01,WeatherDisplay:10.37,2013-07-18 16:25:00,
2013-07-18 12:30:00,86.5,72.4,30.09,East,90,5.8,5.8,63,0.00,BKN,,0.01,WeatherDisplay:10.37,2013-07-18 16:30:00,
2013-07-18 12:35:00,86.0,72.9,30.09,ESE,112,8.1,8.1,65,0.00,BKN,,0.01,WeatherDisplay:10.37,2013-07-18 16:35:00,
2013-07-18 12:40:00,86.7,73.1,30.09,NE,45,4.6,4.6,64,0.00,BKN,,0.01,WeatherDisplay:10.37,2013-07-18 16:40:00,
2013-07-18 12:45:00,85.6,71.6,30.09,ESE,112,6.9,6.9,63,0.00,BKN,,0.01,WeatherDisplay:10.37,2013-07-18 16:45:00,
2013-07-18 12:50:00,85.3,71.7,30.09,SSE,158,6.0,6.0,64,0.00,BKN,,0.01,WeatherDisplay:10.37,2013-07-18 16:50:00,
2013-07-18 12:55:00,85.3,69.3,30.09,SE,135,9.9,9.9,59,0.00,BKN,,0.01,WeatherDisplay:10.37,2013-07-18 16:55:00,
2013-07-18 13:00:00,85.3,69.8,30.09,SE,135,11.5,11.5,60,0.00,BKN,,0.01,WeatherDisplay:10.37,2013-07-18 17:00:00,
2013-07-18 13:05:00,85.6,72.1,30.09,SE,135,8.1,8.1,64,0.00,BKN,,0.01,WeatherDisplay:10.37,2013-07-18 17:05:00,
2013-07-18 13:10:00,85.5,71.0,30.09,ESE,112,12.7,12.7,62,0.00,BKN,,0.01,WeatherDisplay:10.37,2013-07-18 17:10:00,
2013-07-18 13:15:00,85.3,71.3,30.08,East,90,4.6,4.6,63,0.00,BKN,,0.01,WeatherDisplay:10.37,2013-07-18 17:15:00,
2013-07-18 13:20:00,86.0,71.5,30.08,East,90,9.4,9.4,62,0.00,BKN,,0.01,WeatherDisplay:10.37,2013-07-18 17:20:00,
2013-07-18 13:25:00,86.0,71.5,30.08,ENE,68,6.9,6.9,62,0.00,BKN,,0.01,WeatherDisplay:10.37,2013-07-18 17:25:00,
2013-07-18 13:30:00,85.3,70.8,30.09,SE,135,10.4,10.4,62,0.00,BKN,,0.01,WeatherDisplay:10.37,2013-07-18 17:30:00,
2013-07-18 13:35:00,85.6,71.6,30.08,ESE,112,4.6,4.6,63,0.00,BKN,,0.01,WeatherDisplay:10.37,2013-07-18 17:35:00,
2013-07-18 13:40:00,86.0,71.5,30.08,ESE,112,6.9,6.9,62,0.00,BKN,,0.01,WeatherDisplay:10.37,2013-07-18 17:40:00,
2013-07-18 13:45:00,85.3,71.3,30.07,SE,135,6.9,6.9,63,0.00,BKN,,0.01,WeatherDisplay:10.37,2013-07-18 17:45:00,
2013-07-18 13:50:00,85.3,71.7,30.07,ESE,112,7.1,7.1,64,0.00,BKN,,0.01,WeatherDisplay:10.37,2013-07-18 17:50:00,
2013-07-18 13:55:00,85.6,71.6,30.07,SE,135,6.9,8.7,63,0.00,BKN,,0.01,WeatherDisplay:10.37,2013-07-18 17:55:00,
2013-07-18 14:00:00,85.1,71.1,30.07,ESE,112,9.2,9.2,63,0.00,BKN,,0.01,WeatherDisplay:10.37,2013-07-18 18:00:00,
2013-07-18 14:05:00,85.3,71.3,30.07,SE,135,8.5,8.5,63,0.00,OVC,,0.01,WeatherDisplay:10.37,2013-07-18 18:05:00,
2013-07-18 14:10:00,85.3,71.3,30.07,SE,135,5.8,5.8,63,0.00,OVC,,0.01,WeatherDisplay:10.37,2013-07-18 18:10:00,
2013-07-18 14:15:00,85.3,71.3,30.07,ESE,112,8.1,8.1,63,0.00,OVC,,0.01,WeatherDisplay:10.37,2013-07-18 18:15:00,
2013-07-18 14:20:00,84.9,70.9,30.07,ESE,112,13.8,13.8,63,0.00,OVC,,0.01,WeatherDisplay:10.37,2013-07-18 18:20:00,
2013-07-18 14:25:00,85.3,70.8,30.07,South,180,8.1,8.1,62,0.00,OVC,,0.01,WeatherDisplay:10.37,2013-07-18 18:25:00,
2013-07-18 14:30:00,85.1,71.1,30.06,East,90,8.1,8.1,63,0.00,OVC,,0.01,WeatherDisplay:10.37,2013-07-18 18:30:00,
2013-07-18 14:35:00,85.2,71.6,30.05,ESE,114,7.0,12.0,64,0.00,OVC,OVC,0.01,WeatherDisplay:10.37,2013-07-18 18:35:00,
2013-07-18 14:40:00,85.3,71.7,30.05,SE,135,9.2,9.2,64,0.00,OVC,,0.01,WeatherDisplay:10.37,2013-07-18 18:40:00,
2013-07-18 14:45:00,85.3,71.3,30.05,ESE,118,8.0,10.0,63,0.00,OVC,OVC,0.01,WeatherDisplay:10.37,2013-07-18 18:45:00,
2013-07-18 14:50:00,85.3,71.3,30.05,NE,45,8.1,8.1,63,0.00,OVC,,0.01,WeatherDisplay:10.37,2013-07-18 18:50:00,
2013-07-18 14:55:00,85.3,70.8,30.05,SE,135,8.1,8.1,62,0.00,OVC,,0.01,WeatherDisplay:10.37,2013-07-18 18:55:00,
2013-07-18 15:00:00,85.1,71.5,30.05,SE,135,6.9,6.9,64,0.00,OVC,,0.01,WeatherDisplay:10.37,2013-07-18 19:00:00,
2013-07-18 15:05:00,85.1,71.5,30.05,East,90,10.5,10.5,64,0.00,OVC,,0.01,WeatherDisplay:10.37,2013-07-18 19:05:00,
2013-07-18 15:10:00,85.1,72.0,30.05,South,180,10.4,10.4,65,0.00,OVC,,0.01,WeatherDisplay:10.37,2013-07-18 19:10:00,
2013-07-18 15:15:00,85.3,71.3,30.05,ESE,112,13.8,13.8,63,0.00,OVC,,0.01,WeatherDisplay:10.37,2013-07-18 19:15:00,
2013-07-18 15:20:00,85.8,71.8,30.05,SE,135,5.2,5.2,63,0.00,OVC,,0.01,WeatherDisplay:10.37,2013-07-18 19:20:00,
2013-07-18 15:25:00,86.0,71.0,30.05,SE,135,9.2,9.2,61,0.00,OVC,,0.01,WeatherDisplay:10.37,2013-07-18 19:25:00,
2013-07-18 15:30:00,86.4,70.8,30.05,ESE,112,6.9,6.9,60,0.00,OVC,,0.01,WeatherDisplay:10.37,2013-07-18 19:30:00,
2013-07-18 15:35:00,86.5,72.0,30.05,East,90,4.6,4.6,62,0.00,OVC,,0.01,WeatherDisplay:10.37,2013-07-18 19:35:00,
2013-07-18 15:40:00,86.9,70.8,30.05,ESE,112,5.8,6.2,59,0.00,OVC,,0.01,WeatherDisplay:10.37,2013-07-18 19:40:00,
2013-07-18 15:45:00,86.7,71.7,30.05,ESE,112,3.6,3.6,61,0.00,OVC,,0.01,WeatherDisplay:10.37,2013-07-18 19:45:00,
2013-07-18 15:51:00,86.7,71.2,30.04,ESE,112,4.7,4.7,60,0.00,OVC,,0.01,WeatherDisplay:10.37,2013-07-18 19:51:00,
2013-07-18 15:56:00,87.3,71.7,30.04,ESE,112,4.0,4.0,60,0.00,OVC,,0.01,WeatherDisplay:10.37,2013-07-18 19:56:00,
2013-07-18 16:01:00,86.5,71.0,30.04,East,90,8.1,8.1,60,0.00,OVC,,0.01,WeatherDisplay:10.37,2013-07-18 20:01:00,
2013-07-18 16:06:00,86.4,71.3,30.04,ESE,112,4.7,4.7,61,0.00,BKN,,0.01,WeatherDisplay:10.37,2013-07-18 20:06:00,
2013-07-18 16:11:00,85.5,71.4,30.04,SSE,158,2.6,2.6,63,0.00,BKN,,0.01,WeatherDisplay:10.37,2013-07-18 20:11:00,
2013-07-18 16:16:00,85.5,71.4,30.03,SE,135,5.8,5.8,63,0.00,BKN,,0.01,WeatherDisplay:10.37,2013-07-18 20:16:00,
2013-07-18 16:21:00,85.3,70.3,30.03,SE,135,5.9,5.9,61,0.00,BKN,,0.01,WeatherDisplay:10.37,2013-07-18 20:21:00,
2013-07-18 16:26:00,85.3,70.8,30.03,ESE,112,6.9,6.9,62,0.00,BKN,,0.01,WeatherDisplay:10.37,2013-07-18 20:26:00,
2013-07-18 16:31:00,85.6,71.1,30.03,East,90,6.9,6.9,62,0.00,BKN,,0.01,WeatherDisplay:10.37,2013-07-18 20:31:00,
2013-07-18 16:36:00,85.3,71.3,30.03,SE,135,8.1,8.1,63,0.00,BKN,,0.01,WeatherDisplay:10.37,2013-07-18 20:36:00,
2013-07-18 16:41:00,85.3,70.8,30.03,East,90,9.2,9.2,62,0.00,BKN,,0.01,WeatherDisplay:10.37,2013-07-18 20:41:00,
2013-07-18 16:46:00,85.1,70.6,30.03,SE,135,6.9,6.9,62,0.00,BKN,,0.01,WeatherDisplay:10.37,2013-07-18 20:46:00,
2013-07-18 16:51:00,84.9,70.4,30.03,ESE,112,5.8,5.8,62,0.00,BKN,,0.01,WeatherDisplay:10.37,2013-07-18 20:51:00,
2013-07-18 16:56:00,84.9,70.9,30.03,SE,135,8.1,8.1,63,0.00,BKN,,0.01,WeatherDisplay:10.37,2013-07-18 20:56:00,
2013-07-18 17:01:00,85.1,70.6,30.03,ENE,68,7.6,7.6,62,0.00,BKN,,0.01,WeatherDisplay:10.37,2013-07-18 21:01:00,
2013-07-18 17:06:00,85.1,70.6,30.03,East,90,5.8,5.8,62,0.00,OVC,,0.01,WeatherDisplay:10.37,2013-07-18 21:06:00,
2013-07-18 17:11:00,85.3,70.8,30.03,ESE,112,8.1,8.1,62,0.00,OVC,,0.01,WeatherDisplay:10.37,2013-07-18 21:11:00,
2013-07-18 17:16:00,85.6,71.6,30.03,East,90,6.9,6.9,63,0.00,OVC,,0.01,WeatherDisplay:10.37,2013-07-18 21:16:00,
2013-07-18 17:21:00,85.8,71.3,30.03,ENE,68,8.1,8.1,62,0.00,OVC,,0.01,WeatherDisplay:10.37,2013-07-18 21:21:00,
2013-07-18 17:26:00,85.8,71.8,30.03,ESE,112,4.6,4.6,63,0.00,OVC,,0.01,WeatherDisplay:10.37,2013-07-18 21:26:00,
2013-07-18 17:31:00,85.3,71.7,30.03,East,90,5.8,5.8,64,0.00,OVC,,0.01,WeatherDisplay:10.37,2013-07-18 21:31:00,
2013-07-18 17:36:00,85.3,72.2,30.03,ESE,112,4.6,4.6,65,0.00,OVC,,0.01,WeatherDisplay:10.37,2013-07-18 21:36:00,
2013-07-18 17:41:00,84.6,71.0,30.03,South,180,8.1,8.1,64,0.00,OVC,,0.01,WeatherDisplay:10.37,2013-07-18 21:41:00,
2013-07-18 17:46:00,84.6,71.5,30.03,East,90,5.8,5.8,65,0.00,OVC,,0.01,WeatherDisplay:10.37,2013-07-18 21:46:00,
2013-07-18 17:51:00,84.4,71.3,30.03,ENE,68,8.1,8.1,65,0.00,OVC,,0.01,WeatherDisplay:10.37,2013-07-18 21:51:00,
2013-07-18 17:56:00,84.0,71.0,30.03,East,90,8.1,8.1,65,0.00,OVC,,0.01,WeatherDisplay:10.37,2013-07-18 21:56:00,
2013-07-18 18:01:00,83.8,71.7,30.03,SSE,158,9.4,9.4,67,0.00,OVC,,0.01,WeatherDisplay:10.37,2013-07-18 22:01:00,
2013-07-18 18:06:00,83.5,71.4,30.03,South,180,8.1,8.1,67,0.00,-RA,,0.01,WeatherDisplay:10.37,2013-07-18 22:06:00,
2013-07-18 18:11:00,83.3,71.6,30.04,South,180,9.2,9.2,68,0.00,-RA,,0.01,WeatherDisplay:10.37,2013-07-18 22:11:00,
2013-07-18 18:16:00,82.8,71.5,30.04,SE,135,9.2,9.2,69,0.00,-RA,,0.01,WeatherDisplay:10.37,2013-07-18 22:16:00,
2013-07-18 18:21:00,82.8,72.0,30.04,SE,135,6.9,6.9,70,0.00,-RA,,0.01,WeatherDisplay:10.37,2013-07-18 22:21:00,
2013-07-18 18:26:00,82.4,71.6,30.04,SE,135,13.8,13.8,70,0.00,-RA,,0.01,WeatherDisplay:10.37,2013-07-18 22:26:00,
2013-07-18 18:31:00,80.6,71.1,30.05,SSE,158,20.7,20.7,73,0.00,-RA,,0.01,WeatherDisplay:10.37,2013-07-18 22:31:00,
2013-07-18 18:36:00,79.0,70.4,30.05,SSE,158,14.0,14.0,75,0.00,-RA,,0.01,WeatherDisplay:10.37,2013-07-18 22:36:00,
2013-07-18 18:41:00,77.7,70.3,30.05,South,180,10.4,10.4,78,0.00,-RA,,0.01,WeatherDisplay:10.37,2013-07-18 22:41:00,
2013-07-18 18:46:00,77.2,70.2,30.05,ESE,112,9.4,9.4,79,0.00,-RA,,0.01,WeatherDisplay:10.37,2013-07-18 22:46:00,
2013-07-18 18:51:00,76.6,70.4,30.05,SSE,158,17.3,17.3,81,0.00,-RA,,0.01,WeatherDisplay:10.37,2013-07-18 22:51:00,
2013-07-18 18:56:00,76.3,70.4,30.05,SW,225,11.5,11.5,82,0.00,-RA,,0.01,WeatherDisplay:10.37,2013-07-18 22:56:00,
2013-07-18 19:01:00,75.9,70.4,30.05,South,180,10.5,10.5,83,0.00,-RA,,0.01,WeatherDisplay:10.37,2013-07-18 23:01:00,
2013-07-18 19:06:00,75.7,70.6,30.05,SE,135,10.4,10.4,84,0.00,-RA,,0.01,WeatherDisplay:10.37,2013-07-18 23:06:00,
2013-07-18 19:11:00,75.7,70.6,30.05,SSW,202,9.2,9.2,84,0.00,-RA,,0.01,WeatherDisplay:10.37,2013-07-18 23:11:00,
2013-07-18 19:16:00,75.6,70.4,30.05,South,180,4.6,4.6,84,0.00,-RA,,0.01,WeatherDisplay:10.37,2013-07-18 23:16:00,
2013-07-18 19:21:00,75.4,70.2,30.05,South,180,6.9,6.9,84,0.00,-RA,,0.01,WeatherDisplay:10.37,2013-07-18 23:21:00,
2013-07-18 19:26:00,75.2,70.4,30.05,South,180,5.8,5.8,85,0.00,-RA,,0.01,WeatherDisplay:10.37,2013-07-18 23:26:00,
2013-07-18 19:31:00,75.2,70.4,30.04,SE,135,4.6,4.6,85,0.00,-RA,,0.01,WeatherDisplay:10.37,2013-07-18 23:31:00,
2013-07-18 19:36:00,75.4,70.6,30.04,SSE,158,6.0,6.0,85,0.00,-RA,,0.01,WeatherDisplay:10.37,2013-07-18 23:36:00,
2013-07-18 19:41:00,75.4,70.6,30.05,SE,135,2.6,2.6,85,0.00,-RA,,0.01,WeatherDisplay:10.37,2013-07-18 23:41:00,
2013-07-18 19:46:00,75.2,70.4,30.05,SSE,158,5.8,5.8,85,0.00,-RA,,0.01,WeatherDisplay:10.37,2013-07-18 23:46:00,
2013-07-18 19:51:00,75.2,70.4,30.05,South,180,4.6,4.6,85,0.00,-RA,,0.01,WeatherDisplay:10.37,2013-07-18 23:51:00,
2013-07-18 19:56:00,75.4,70.6,30.05,SSE,158,4.6,4.6,85,0.00,-RA,,0.01,WeatherDisplay:10.37,2013-07-18 23:56:00,
2013-07-18 20:02:00,75.2,70.4,30.04,SSE,158,4.6,4.6,85,0.00,-RA,,0.01,WeatherDisplay:10.37,2013-07-19 00:02:00,
2013-07-18 20:07:00,75.4,70.6,30.05,SSW,202,2.3,2.3,85,0.00,-RA,,0.01,WeatherDisplay:10.37,2013-07-19 00:07:00,
2013-07-18 20:12:00,75.2,70.4,30.05,SSW,202,3.5,3.5,85,0.00,-RA,,0.01,WeatherDisplay:10.37,2013-07-19 00:12:00,
2013-07-18 20:17:00,75.2,70.4,30.05,SSE,158,1.1,1.1,85,0.00,-RA,,0.01,WeatherDisplay:10.37,2013-07-19 00:17:00,
2013-07-18 20:22:00,75.2,70.0,30.05,SSE,158,2.3,2.3,84,0.00,-RA,,0.01,WeatherDisplay:10.37,2013-07-19 00:22:00,
2013-07-18 20:27:00,75.4,70.2,30.05,SSE,158,1.1,0.0,84,0.00,-RA,,0.01,WeatherDisplay:10.37,2013-07-19 00:27:00,
2013-07-18 20:32:00,75.4,69.9,30.05,South,180,1.1,1.1,83,0.00,-RA,,0.01,WeatherDisplay:10.37,2013-07-19 00:32:00,
2013-07-18 20:37:00,75.2,69.7,30.05,South,180,0.0,0.0,83,0.00,-RA,,0.01,WeatherDisplay:10.37,2013-07-19 00:37:00,
2013-07-18 20:42:00,75.2,69.7,30.05,South,180,0.0,0.0,83,0.00,-RA,,0.01,WeatherDisplay:10.37,2013-07-19 00:42:00,
2013-07-18 20:47:00,75.2,69.7,30.06,South,180,0.0,0.0,83,0.00,-RA,,0.01,WeatherDisplay:10.37,2013-07-19 00:47:00,
2013-07-18 20:52:00,75.2,69.7,30.06,South,180,0.0,0.0,83,0.00,-RA,,0.01,WeatherDisplay:10.37,2013-07-19 00:52:00,
2013-07-18 20:57:00,75.2,69.7,30.06,ESE,112,1.4,1.4,83,0.00,-RA,,0.01,WeatherDisplay:10.37,2013-07-19 00:57:00,
2013-07-18 21:02:00,75.2,69.7,30.06,ESE,112,1.1,1.1,83,0.00,OVC,,0.01,WeatherDisplay:10.37,2013-07-19 01:02:00,
2013-07-18 21:07:00,75.4,69.9,30.06,SE,135,2.3,0.0,83,0.00,OVC,,0.01,WeatherDisplay:10.37,2013-07-19 01:07:00,
2013-07-18 21:12:00,75.2,69.7,30.06,SE,135,0.0,0.0,83,0.00,OVC,,0.01,WeatherDisplay:10.37,2013-07-19 01:12:00,
2013-07-18 21:17:00,75.2,69.7,30.06,SE,135,1.1,1.1,83,0.00,OVC,,0.01,WeatherDisplay:10.37,2013-07-19 01:17:00,
2013-07-18 21:22:00,75.2,69.7,30.06,SE,135,0.0,0.0,83,0.00,OVC,,0.01,WeatherDisplay:10.37,2013-07-19 01:22:00,
2013-07-18 21:27:00,75.2,69.7,30.06,SE,135,2.4,2.4,83,0.00,OVC,,0.01,WeatherDisplay:10.37,2013-07-19 01:27:00,
2013-07-18 21:32:00,75.6,70.0,30.06,SE,135,2.3,2.3,83,0.00,OVC,,0.01,WeatherDisplay:10.37,2013-07-19 01:32:00,
2013-07-18 21:37:00,75.6,70.0,30.06,SE,135,1.1,0.0,83,0.00,OVC,,0.01,WeatherDisplay:10.37,2013-07-19 01:37:00,
2013-07-18 21:42:00,75.4,69.9,30.06,SE,135,2.3,2.3,83,0.00,OVC,,0.01,WeatherDisplay:10.37,2013-07-19 01:42:00,
2013-07-18 21:47:00,75.2,69.7,30.06,SE,135,0.0,0.0,83,0.00,OVC,,0.01,WeatherDisplay:10.37,2013-07-19 01:47:00,
2013-07-18 21:52:00,75.2,69.7,30.06,SSE,158,2.3,2.3,83,0.00,OVC,,0.01,WeatherDisplay:10.37,2013-07-19 01:52:00,
2013-07-18 21:57:00,75.2,69.7,30.06,SSE,158,1.1,1.1,83,0.00,OVC,,0.01,WeatherDisplay:10.37,2013-07-19 01:57:00,
2013-07-18 22:02:00,75.2,69.7,30.06,SSE,158,0.0,0.0,83,0.00,BKN,,0.01,WeatherDisplay:10.37,2013-07-19 02:02:00,
2013-07-18 22:07:00,75.0,69.5,30.06,SSE,158,1.1,1.1,83,0.00,BKN,,0.01,WeatherDisplay:10.37,2013-07-19 02:07:00,
2013-07-18 22:12:00,75.0,69.9,30.06,South,180,1.1,1.1,84,0.00,BKN,,0.01,WeatherDisplay:10.37,2013-07-19 02:12:00,
2013-07-18 22:17:00,75.2,70.0,30.06,SSE,158,2.3,2.3,84,0.00,BKN,,0.01,WeatherDisplay:10.37,2013-07-19 02:17:00,
2013-07-18 22:22:00,75.2,69.7,30.06,SSE,158,3.5,3.5,83,0.00,BKN,,0.01,WeatherDisplay:10.37,2013-07-19 02:22:00,
2013-07-18 22:27:00,75.4,69.9,30.07,SSE,158,2.4,2.4,83,0.00,BKN,,0.01,WeatherDisplay:10.37,2013-07-19 02:27:00,
2013-07-18 22:32:00,75.4,69.9,30.07,SSE,158,3.5,3.5,83,0.00,BKN,,0.01,WeatherDisplay:10.37,2013-07-19 02:32:00,
2013-07-18 22:37:00,75.4,70.2,30.07,SSE,158,2.9,2.9,84,0.00,BKN,,0.01,WeatherDisplay:10.37,2013-07-19 02:37:00,
2013-07-18 22:42:00,75.4,70.2,30.06,SSE,158,1.1,1.1,84,0.00,BKN,,0.01,WeatherDisplay:10.37,2013-07-19 02:42:00,
2013-07-18 22:47:00,75.4,70.2,30.06,SE,135,2.3,2.3,84,0.00,BKN,,0.01,WeatherDisplay:10.37,2013-07-19 02:47:00,
2013-07-18 22:52:00,75.2,70.0,30.06,SE,135,1.1,0.0,84,0.00,BKN,,0.01,WeatherDisplay:10.37,2013-07-19 02:52:00,
2013-07-18 22:57:00,75.2,70.4,30.06,SE,135,2.3,2.3,85,0.00,BKN,,0.01,WeatherDisplay:10.37,2013-07-19 02:57:00,
2013-07-18 23:02:00,75.2,70.4,30.06,SE,135,3.5,3.5,85,0.00,BKN,,0.01,WeatherDisplay:10.37,2013-07-19 03:02:00,
2013-07-18 23:07:00,75.2,70.4,30.06,SSE,158,2.3,2.3,85,0.00,BKN,,0.01,WeatherDisplay:10.37,2013-07-19 03:07:00,
2013-07-18 23:12:00,75.2,70.4,30.06,SSE,158,2.3,2.3,85,0.00,BKN,,0.01,WeatherDisplay:10.37,2013-07-19 03:12:00,
2013-07-18 23:17:00,75.2,70.4,30.06,SE,135,2.3,2.3,85,0.00,BKN,,0.01,WeatherDisplay:10.37,2013-07-19 03:17:00,
2013-07-18 23:22:00,75.0,70.2,30.07,SE,135,1.1,1.1,85,0.00,BKN,,0.01,WeatherDisplay:10.37,2013-07-19 03:22:00,
2013-07-18 23:27:00,75.0,70.2,30.07,SE,135,1.4,1.4,85,0.00,BKN,,0.01,WeatherDisplay:10.37,2013-07-19 03:27:00,
2013-07-18 23:32:00,75.0,70.2,30.07,SE,135,1.1,1.1,85,0.00,BKN,,0.01,WeatherDisplay:10.37,2013-07-19 03:32:00,
2013-07-18 23:37:00,74.8,70.0,30.07,SE,135,0.0,0.0,85,0.00,BKN,,0.01,WeatherDisplay:10.37,2013-07-19 03:37:00,
2013-07-18 23:42:00,74.7,69.8,30.07,SE,135,0.0,0.0,85,0.00,BKN,,0.01,WeatherDisplay:10.37,2013-07-19 03:42:00,
2013-07-18 23:47:00,74.7,70.2,30.07,SE,135,1.4,1.4,86,0.00,BKN,,0.01,WeatherDisplay:10.37,2013-07-19 03:47:00,
2013-07-18 23:52:00,74.8,70.0,30.07,ENE,68,2.3,2.3,85,0.00,BKN,,0.01,WeatherDisplay:10.37,2013-07-19 03:52:00,
2013-07-18 23:57:00,74.7,69.8,30.08,NE,45,1.1,1.1,85,0.00,BKN,,0.01,WeatherDisplay:10.37,2013-07-19 03:57:00,